CPA321 VHHH-VABB

Flight info

Callsign CPA321
Flight time N/A
Altitude 34000
Route PECAN V10 SIKOU/K0930S1040 A202 ASSAD/K0919F360 A206 NALAO A206 LPB B465 CEA Q20 ENTAP/N0493F380 Q20 OPAKA EMRAK2A
Aircraft B77W/H-SDE1E2E3FGHIJ2J3J4J5M1RWXY/LB1D1

Departure

Time 2026-05-05 02:13
Airport Hong Kong International Airport (VHHH)

Arrival

Time N/A
Airport Chhatrapati Shivaji Maharaj International Airport (VABB)
Time Latitude Longitude Altitude Speed Heading
2026-05-05 01:52 22.30896 113.92460 40 ft 0 kts 115°
2026-05-05 01:59 22.30898 113.92455 39 ft 4 kts 115°
2026-05-05 01:59 22.30910 113.92428 36 ft 4 kts 115°
2026-05-05 01:59 22.30919 113.92407 37 ft 4 kts 117°
2026-05-05 02:00 22.30935 113.92387 40 ft 4 kts 163°
2026-05-05 02:00 22.30957 113.92388 39 ft 3 kts 206°
2026-05-05 02:00 22.30980 113.92400 36 ft 2 kts 206°
2026-05-05 02:00 22.30981 113.92400 36 ft 0 kts 206°
2026-05-05 02:03 22.30970 113.92394 38 ft 5 kts 206°
2026-05-05 02:03 22.30921 113.92368 40 ft 10 kts 207°
2026-05-05 02:03 22.30848 113.92330 40 ft 13 kts 197°
2026-05-05 02:03 22.30762 113.92338 40 ft 13 kts 179°
2026-05-05 02:04 22.30697 113.92266 40 ft 17 kts 250°
2026-05-05 02:04 22.30656 113.92138 40 ft 18 kts 251°
2026-05-05 02:04 22.30615 113.92011 40 ft 18 kts 251°
2026-05-05 02:04 22.30574 113.91883 40 ft 18 kts 250°
2026-05-05 02:05 22.30533 113.91757 40 ft 18 kts 250°
2026-05-05 02:05 22.30488 113.91616 40 ft 21 kts 251°
2026-05-05 02:05 22.30440 113.91470 40 ft 21 kts 251°
2026-05-05 02:05 22.30393 113.91323 40 ft 21 kts 251°
2026-05-05 02:06 22.30345 113.91177 40 ft 21 kts 250°
2026-05-05 02:06 22.30298 113.91030 40 ft 21 kts 251°
2026-05-05 02:06 22.30251 113.90885 40 ft 21 kts 251°
2026-05-05 02:06 22.30204 113.90739 40 ft 21 kts 251°
2026-05-05 02:07 22.30157 113.90592 40 ft 21 kts 251°
2026-05-05 02:07 22.30110 113.90446 40 ft 21 kts 251°
2026-05-05 02:07 22.30062 113.90299 40 ft 21 kts 251°
2026-05-05 02:07 22.30015 113.90155 40 ft 20 kts 251°
2026-05-05 02:08 22.29970 113.90014 40 ft 20 kts 251°
2026-05-05 02:08 22.29924 113.89873 40 ft 20 kts 251°
2026-05-05 02:08 22.29867 113.89745 40 ft 19 kts 216°
2026-05-05 02:08 22.29770 113.89757 40 ft 14 kts 161°
2026-05-05 02:09 22.29759 113.89761 40 ft 0 kts 161°
2026-05-05 02:11 22.29729 113.89772 40 ft 10 kts 161°
2026-05-05 02:11 22.29661 113.89798 40 ft 10 kts 156°
2026-05-05 02:11 22.29639 113.89856 40 ft 8 kts 73°
2026-05-05 02:12 22.29668 113.89947 40 ft 33 kts 71°
2026-05-05 02:12 22.30142 113.91412 41 ft 164 kts 71°
2026-05-05 02:12 22.30545 113.92672 375 ft 183 kts 71°
2026-05-05 02:13 22.30990 113.94045 800 ft 199 kts 72°
2026-05-05 02:13 22.31452 113.95428 1636 ft 192 kts 73°
2026-05-05 02:13 22.31895 113.96811 2149 ft 205 kts 74°
2026-05-05 02:13 22.32388 113.98370 2344 ft 234 kts 73°
2026-05-05 02:14 22.32946 114.00135 2877 ft 258 kts 73°
2026-05-05 02:14 22.33550 114.02021 3715 ft 273 kts 72°
2026-05-05 02:14 22.33904 114.04024 4413 ft 278 kts 95°
2026-05-05 02:14 22.33377 114.06029 5196 ft 279 kts 122°
2026-05-05 02:15 22.32099 114.07601 5884 ft 279 kts 145°
2026-05-05 02:15 22.30372 114.08540 6562 ft 279 kts 167°
2026-05-05 02:15 22.28453 114.08778 7212 ft 277 kts 184°
2026-05-05 02:15 22.26549 114.08708 7837 ft 279 kts 184°
2026-05-05 02:16 22.24606 114.08686 8594 ft 279 kts 182°
2026-05-05 02:16 22.22650 114.08670 9337 ft 281 kts 183°
2026-05-05 02:16 22.20680 114.08653 10011 ft 286 kts 182°
2026-05-05 02:16 22.18660 114.08644 10510 ft 296 kts 179°
2026-05-05 02:17 22.16584 114.09219 10657 ft 327 kts 154°
2026-05-05 02:17 22.14822 114.10937 10855 ft 361 kts 127°
2026-05-05 02:17 22.13619 114.13393 11026 ft 379 kts 117°
2026-05-05 02:17 22.12488 114.16004 11584 ft 389 kts 117°
2026-05-05 02:18 22.11708 114.17752 12135 ft 388 kts 117°
2026-05-05 02:18 22.10527 114.20324 13620 ft 385 kts 120°
2026-05-05 02:18 22.09285 114.22950 14186 ft 400 kts 119°
2026-05-05 02:18 22.07359 114.26416 14631 ft 411 kts 135°
2026-05-05 02:19 22.05947 114.27773 14944 ft 408 kts 148°
2026-05-05 02:19 22.02779 114.30078 15660 ft 416 kts 148°
2026-05-05 02:19 22.01217 114.31280 16109 ft 415 kts 148°
2026-05-05 02:19 21.98691 114.32751 16524 ft 415 kts 166°
2026-05-05 02:20 21.95847 114.33094 17077 ft 412 kts 188°
2026-05-05 02:20 21.93066 114.32439 17851 ft 407 kts 202°
2026-05-05 02:20 21.90540 114.31100 18540 ft 404 kts 217°
2026-05-05 02:20 21.88306 114.29254 19039 ft 406 kts 221°
2026-05-05 02:21 21.86101 114.27316 19595 ft 411 kts 222°
2026-05-05 02:21 21.83909 114.25381 20219 ft 412 kts 222°
2026-05-05 02:21 21.81678 114.23432 20872 ft 414 kts 222°
2026-05-05 02:21 21.79419 114.21481 21445 ft 417 kts 222°
2026-05-05 02:22 21.77133 114.19525 21990 ft 421 kts 222°
2026-05-05 02:22 21.74823 114.17558 22518 ft 425 kts 222°
2026-05-05 02:22 21.72491 114.15578 23057 ft 429 kts 223°
2026-05-05 02:22 21.70139 114.13582 23592 ft 432 kts 223°
2026-05-05 02:23 21.67769 114.11571 24036 ft 435 kts 223°
2026-05-05 02:23 21.65356 114.09592 24436 ft 438 kts 218°
2026-05-05 02:23 21.62575 114.08148 24767 ft 454 kts 201°
2026-05-05 02:23 21.59514 114.07416 25102 ft 459 kts 197°
2026-05-05 02:24 21.56368 114.06697 25447 ft 462 kts 198°
2026-05-05 02:24 21.53218 114.05917 25866 ft 464 kts 198°
2026-05-05 02:24 21.50077 114.05107 26306 ft 465 kts 199°
2026-05-05 02:24 21.46921 114.04284 26717 ft 467 kts 199°
2026-05-05 02:25 21.43778 114.03354 27086 ft 466 kts 206°
2026-05-05 02:25 21.40966 114.01729 27379 ft 456 kts 219°
2026-05-05 02:25 21.38351 113.99763 27676 ft 460 kts 219°
2026-05-05 02:25 21.35744 113.97819 28023 ft 463 kts 219°
2026-05-05 02:26 21.33071 113.95868 28398 ft 465 kts 218°
2026-05-05 02:26 21.30367 113.93932 28753 ft 467 kts 218°
2026-05-05 02:26 21.27636 113.91999 29018 ft 471 kts 217°
2026-05-05 02:26 21.24912 113.90081 29253 ft 475 kts 217°
2026-05-05 02:27 21.22106 113.88108 29544 ft 477 kts 217°
2026-05-05 02:27 21.19357 113.86174 29857 ft 478 kts 217°
2026-05-05 02:27 21.16572 113.84213 30151 ft 480 kts 217°
2026-05-05 02:27 21.13776 113.82242 30429 ft 479 kts 218°
2026-05-05 02:28 21.11170 113.80021 30648 ft 475 kts 229°
2026-05-05 02:28 21.09050 113.77326 30950 ft 470 kts 237°
2026-05-05 02:28 21.07320 113.74375 31307 ft 466 kts 244°
2026-05-05 02:28 21.06066 113.71244 31641 ft 461 kts 252°
2026-05-05 02:29 21.05040 113.67988 31909 ft 461 kts 253°
2026-05-05 02:29 21.04025 113.64728 32197 ft 461 kts 253°
2026-05-05 02:29 21.03004 113.61467 32383 ft 464 kts 252°
2026-05-05 02:29 21.01967 113.58189 32652 ft 464 kts 252°
2026-05-05 02:30 21.00923 113.54925 33042 ft 462 kts 252°
2026-05-05 02:30 20.99877 113.51686 33442 ft 459 kts 252°
2026-05-05 02:30 20.98829 113.48456 33813 ft 458 kts 252°
2026-05-05 02:30 20.97778 113.45223 33952 ft 461 kts 252°
2026-05-05 02:31 20.96731 113.42009 34015 ft 463 kts 252°
2026-05-05 02:31 20.94616 113.35523 34004 ft 459 kts 252°
2026-05-05 02:32 20.92516 113.29091 34019 ft 456 kts 252°
2026-05-05 02:32 20.90425 113.22691 34001 ft 456 kts 252°
2026-05-05 02:33 20.88330 113.16285 34016 ft 456 kts 252°
2026-05-05 02:33 20.86240 113.09905 34015 ft 457 kts 252°
2026-05-05 02:34 20.84127 113.03466 34016 ft 458 kts 252°
2026-05-05 02:34 20.82012 112.97030 33996 ft 460 kts 252°
2026-05-05 02:35 20.79885 112.90566 34013 ft 462 kts 252°
2026-05-05 02:35 20.77755 112.84102 34010 ft 464 kts 252°
2026-05-05 02:36 20.75601 112.77574 34004 ft 466 kts 252°
2026-05-05 02:36 20.73439 112.71031 34025 ft 468 kts 252°
2026-05-05 02:37 20.71261 112.64451 34004 ft 468 kts 252°
2026-05-05 02:37 20.69104 112.57940 33999 ft 466 kts 252°
2026-05-05 02:38 20.66940 112.51420 34007 ft 465 kts 252°
2026-05-05 02:38 20.64780 112.44921 34025 ft 464 kts 252°
2026-05-05 02:39 20.62619 112.38430 33996 ft 466 kts 252°
2026-05-05 02:39 20.60454 112.31927 34001 ft 464 kts 252°
2026-05-05 02:40 20.58291 112.25444 34006 ft 462 kts 252°
2026-05-05 02:40 20.56293 112.18989 33999 ft 457 kts 262°
2026-05-05 02:40 20.56109 112.15614 34010 ft 456 kts 274°
2026-05-05 02:41 20.56536 112.12260 34015 ft 457 kts 283°
2026-05-05 02:41 20.57545 112.09046 34003 ft 457 kts 294°
2026-05-05 02:41 20.58960 112.05999 34016 ft 459 kts 295°
2026-05-05 02:42 20.61836 111.99869 34014 ft 463 kts 295°
2026-05-05 02:42 20.64658 111.93716 34015 ft 465 kts 294°
2026-05-05 02:43 20.67479 111.87473 34009 ft 466 kts 294°
2026-05-05 02:43 20.70286 111.81233 34006 ft 465 kts 294°
2026-05-05 02:44 20.73086 111.75005 34010 ft 464 kts 294°
2026-05-05 02:44 20.75860 111.68832 34013 ft 462 kts 294°
2026-05-05 02:45 20.78641 111.62634 34012 ft 461 kts 294°
2026-05-05 02:45 20.81410 111.56460 34009 ft 460 kts 294°
2026-05-05 02:46 20.83061 111.49967 34012 ft 456 kts 272°
2026-05-05 02:46 20.82213 111.43227 34009 ft 461 kts 252°
2026-05-05 02:47 20.79978 111.36831 34015 ft 464 kts 252°
2026-05-05 02:47 20.77726 111.30338 34013 ft 467 kts 252°
2026-05-05 02:48 20.75514 111.23803 34018 ft 469 kts 252°
2026-05-05 02:48 20.73306 111.17224 34011 ft 469 kts 252°
2026-05-05 02:49 20.71115 111.10706 34007 ft 469 kts 253°
2026-05-05 02:49 20.68910 111.04161 34007 ft 468 kts 252°
2026-05-05 02:50 20.66705 110.97624 34014 ft 466 kts 253°
2026-05-05 02:50 20.64503 110.91106 34012 ft 466 kts 252°
2026-05-05 02:51 20.62323 110.84630 34011 ft 466 kts 253°
2026-05-05 02:51 20.60139 110.78116 34015 ft 465 kts 253°
2026-05-05 02:52 20.57963 110.71638 34011 ft 465 kts 253°
2026-05-05 02:52 20.55767 110.65112 34016 ft 465 kts 253°
2026-05-05 02:53 20.53576 110.58609 34018 ft 466 kts 253°
2026-05-05 02:53 20.51243 110.52189 34012 ft 469 kts 247°
2026-05-05 02:54 20.47927 110.46144 34014 ft 474 kts 238°
2026-05-05 02:54 20.43804 110.40601 34022 ft 478 kts 234°
2026-05-05 02:55 20.39555 110.35119 34028 ft 479 kts 234°
2026-05-05 02:55 20.35351 110.29627 34105 ft 478 kts 234°
2026-05-05 02:56 20.31180 110.24155 34100 ft 478 kts 234°
2026-05-05 02:56 20.27000 110.18633 34108 ft 479 kts 235°
2026-05-05 02:57 20.22846 110.13079 34110 ft 479 kts 235°
2026-05-05 02:57 20.18689 110.07520 34112 ft 479 kts 235°
2026-05-05 02:58 20.14527 110.01971 34102 ft 480 kts 235°
2026-05-05 02:58 20.10382 109.96455 34109 ft 479 kts 235°
2026-05-05 02:59 20.06208 109.90907 34104 ft 479 kts 235°
2026-05-05 02:59 20.02040 109.85372 34105 ft 478 kts 235°
2026-05-05 03:00 19.97908 109.79889 34091 ft 478 kts 235°
2026-05-05 03:00 19.93745 109.74370 34101 ft 478 kts 235°
2026-05-05 03:01 19.89573 109.68843 34107 ft 479 kts 235°
2026-05-05 03:01 19.85395 109.63315 34101 ft 480 kts 235°
2026-05-05 03:02 19.81206 109.57776 34101 ft 481 kts 235°
2026-05-05 03:02 19.77034 109.52266 34101 ft 481 kts 235°
2026-05-05 03:03 19.72838 109.46729 34099 ft 481 kts 235°
2026-05-05 03:03 19.68631 109.41182 34092 ft 481 kts 235°
2026-05-05 03:04 19.64452 109.35677 34100 ft 481 kts 235°
2026-05-05 03:04 19.60234 109.30126 34096 ft 482 kts 235°
2026-05-05 03:05 19.56051 109.24625 34096 ft 482 kts 235°
2026-05-05 03:05 19.51838 109.19090 34096 ft 482 kts 234°
2026-05-05 03:06 19.47592 109.13581 34093 ft 482 kts 234°
2026-05-05 03:06 19.43329 109.08089 34081 ft 482 kts 234°
2026-05-05 03:07 19.39106 109.02643 34087 ft 481 kts 234°
2026-05-05 03:07 19.35579 108.98094 34092 ft 480 kts 234°
2026-05-05 03:08 19.31347 108.92635 34097 ft 479 kts 234°
2026-05-05 03:08 19.27118 108.87185 34097 ft 478 kts 234°
2026-05-05 03:09 19.22896 108.81747 34093 ft 478 kts 234°
2026-05-05 03:09 19.18678 108.76302 34096 ft 478 kts 235°
2026-05-05 03:10 19.14490 108.70897 34079 ft 477 kts 235°
2026-05-05 03:10 19.10280 108.65469 34086 ft 476 kts 235°
2026-05-05 03:11 19.06070 108.60048 34089 ft 476 kts 235°
2026-05-05 03:11 19.01893 108.54672 34090 ft 475 kts 235°
2026-05-05 03:12 18.97695 108.49275 34094 ft 475 kts 235°
2026-05-05 03:12 18.93493 108.43877 34090 ft 475 kts 235°
2026-05-05 03:13 18.89284 108.38474 34086 ft 475 kts 234°
2026-05-05 03:13 18.85076 108.33077 34081 ft 476 kts 234°
2026-05-05 03:14 18.80886 108.27709 34094 ft 476 kts 234°
2026-05-05 03:14 18.76662 108.22304 34093 ft 477 kts 234°
2026-05-05 03:15 18.72426 108.16886 34091 ft 478 kts 234°
2026-05-05 03:15 18.68212 108.11500 34094 ft 479 kts 234°
2026-05-05 03:16 18.63966 108.06080 34093 ft 479 kts 234°
2026-05-05 03:16 18.59718 108.00661 34093 ft 479 kts 234°
2026-05-05 03:17 18.55496 107.95279 34086 ft 479 kts 233°
2026-05-05 03:17 18.51235 107.89852 34102 ft 480 kts 233°
2026-05-05 03:18 18.46962 107.84415 34094 ft 481 kts 233°
2026-05-05 03:18 18.42720 107.79021 34096 ft 481 kts 233°
2026-05-05 03:19 18.36542 107.70728 34089 ft 473 kts 246°
2026-05-05 03:19 18.35477 107.67473 34116 ft 468 kts 261°
2026-05-05 03:19 18.35132 107.64073 34148 ft 469 kts 272°
2026-05-05 03:20 18.35510 107.60674 34306 ft 467 kts 282°
2026-05-05 03:20 18.36220 107.57336 34515 ft 467 kts 283°
2026-05-05 03:20 18.36929 107.54050 34853 ft 465 kts 283°
2026-05-05 03:20 18.37632 107.50733 35205 ft 462 kts 283°
2026-05-05 03:21 18.38314 107.47427 35526 ft 461 kts 282°
2026-05-05 03:21 18.38982 107.44124 35817 ft 460 kts 282°
2026-05-05 03:21 18.39641 107.40812 35920 ft 462 kts 282°
2026-05-05 03:21 18.40296 107.37496 35958 ft 463 kts 282°
2026-05-05 03:22 18.41593 107.30910 35992 ft 461 kts 282°
2026-05-05 03:22 18.42892 107.24305 35996 ft 459 kts 282°
2026-05-05 03:23 18.44188 107.17714 36001 ft 458 kts 282°
2026-05-05 03:23 18.45477 107.11147 36000 ft 457 kts 282°
2026-05-05 03:24 18.46755 107.04622 36001 ft 458 kts 282°
2026-05-05 03:24 18.48038 106.98039 36000 ft 458 kts 282°
2026-05-05 03:25 18.49317 106.91451 36001 ft 459 kts 282°
2026-05-05 03:25 18.50596 106.84845 36003 ft 460 kts 282°
2026-05-05 03:26 18.51875 106.78232 36003 ft 461 kts 282°
2026-05-05 03:26 18.53145 106.71656 36003 ft 461 kts 282°
2026-05-05 03:27 18.54423 106.65023 36001 ft 461 kts 282°
2026-05-05 03:27 18.55699 106.58390 36001 ft 461 kts 282°
2026-05-05 03:28 18.56996 106.51765 36002 ft 461 kts 282°
2026-05-05 03:28 18.58300 106.45156 36006 ft 461 kts 282°
2026-05-05 03:29 18.59599 106.38541 36005 ft 460 kts 282°
2026-05-05 03:29 18.60890 106.31939 36004 ft 460 kts 282°
2026-05-05 03:30 18.62171 106.25374 36008 ft 460 kts 282°
2026-05-05 03:30 18.63457 106.18773 36011 ft 459 kts 282°
2026-05-05 03:31 18.64741 106.12171 36008 ft 459 kts 282°
2026-05-05 03:31 18.66018 106.05563 36009 ft 459 kts 282°
2026-05-05 03:32 18.67283 105.98950 36010 ft 459 kts 282°
2026-05-05 03:32 18.68536 105.92383 36013 ft 460 kts 282°
2026-05-05 03:33 18.69800 105.85753 36012 ft 460 kts 282°
2026-05-05 03:33 18.71063 105.79114 36014 ft 461 kts 282°
2026-05-05 03:34 18.72323 105.72485 36014 ft 461 kts 281°
2026-05-05 03:34 18.73697 105.65918 36015 ft 461 kts 286°
2026-05-05 03:35 18.75843 105.59541 36015 ft 461 kts 290°
2026-05-05 03:35 18.78073 105.53173 36018 ft 462 kts 289°
2026-05-05 03:36 18.80283 105.46791 36023 ft 463 kts 289°
2026-05-05 03:36 18.82467 105.40434 36030 ft 463 kts 289°
2026-05-05 03:37 18.84654 105.34045 36026 ft 462 kts 289°
2026-05-05 03:37 18.86837 105.27664 36028 ft 461 kts 289°
2026-05-05 03:38 18.89017 105.21282 36031 ft 461 kts 289°
2026-05-05 03:38 18.91192 105.14908 36027 ft 461 kts 289°
2026-05-05 03:39 18.93354 105.08568 36026 ft 461 kts 289°
2026-05-05 03:39 18.95529 105.02179 36031 ft 461 kts 289°
2026-05-05 03:40 18.97699 104.95795 36034 ft 461 kts 289°
2026-05-05 03:40 18.99856 104.89442 36037 ft 462 kts 289°
2026-05-05 03:41 19.02028 104.83040 36042 ft 463 kts 289°
2026-05-05 03:41 19.04198 104.76632 36041 ft 463 kts 289°
2026-05-05 03:42 19.06372 104.70207 36036 ft 464 kts 289°
2026-05-05 03:42 19.08541 104.63783 36033 ft 464 kts 289°
2026-05-05 03:43 19.10715 104.57341 36031 ft 464 kts 289°
2026-05-05 03:43 19.12871 104.50943 36042 ft 464 kts 289°
2026-05-05 03:44 19.15040 104.44499 36039 ft 465 kts 289°
2026-05-05 03:44 19.17206 104.38055 36035 ft 465 kts 289°
2026-05-05 03:45 19.19373 104.31596 36051 ft 465 kts 289°
2026-05-05 03:45 19.21522 104.25185 36045 ft 465 kts 289°
2026-05-05 03:46 19.23679 104.18744 36067 ft 464 kts 289°
2026-05-05 03:46 19.25837 104.12288 36055 ft 465 kts 289°
2026-05-05 03:47 19.27990 104.05838 36059 ft 464 kts 289°
2026-05-05 03:47 19.30132 103.99415 36056 ft 465 kts 289°
2026-05-05 03:48 19.32281 103.92963 36048 ft 465 kts 289°
2026-05-05 03:48 19.34410 103.86499 36058 ft 464 kts 288°
2026-05-05 03:49 19.36509 103.80071 36060 ft 464 kts 288°
2026-05-05 03:49 19.38623 103.73598 36049 ft 463 kts 288°
2026-05-05 03:50 19.40731 103.67141 36066 ft 464 kts 288°
2026-05-05 03:50 19.42838 103.60682 36061 ft 464 kts 288°
2026-05-05 03:51 19.44999 103.54277 36048 ft 465 kts 289°
2026-05-05 03:51 19.47211 103.47836 36066 ft 465 kts 289°
2026-05-05 03:52 19.49419 103.41380 36052 ft 466 kts 289°
2026-05-05 03:52 19.51622 103.34905 36068 ft 466 kts 289°
2026-05-05 03:53 19.53816 103.28437 36060 ft 466 kts 289°
2026-05-05 03:53 19.55996 103.22002 36064 ft 466 kts 289°
2026-05-05 03:54 19.58186 103.15528 36059 ft 467 kts 289°
2026-05-05 03:54 19.60009 103.10136 36047 ft 467 kts 289°
2026-05-05 03:55 19.62199 103.03648 36049 ft 467 kts 289°
2026-05-05 03:55 19.64389 102.97150 36052 ft 467 kts 289°
2026-05-05 03:56 19.66578 102.90650 36047 ft 467 kts 289°
2026-05-05 03:56 19.68765 102.84145 36050 ft 467 kts 288°
2026-05-05 03:57 19.70932 102.77692 36055 ft 466 kts 288°
2026-05-05 03:57 19.73109 102.71201 36045 ft 466 kts 288°
2026-05-05 03:58 19.75283 102.64707 36035 ft 465 kts 288°
2026-05-05 03:58 19.77436 102.58269 36021 ft 465 kts 288°
2026-05-05 03:59 19.79598 102.51795 36032 ft 465 kts 288°
2026-05-05 03:59 19.81746 102.45356 36028 ft 464 kts 288°
2026-05-05 04:00 19.83901 102.38884 36038 ft 465 kts 288°
2026-05-05 04:00 19.86064 102.32380 36030 ft 465 kts 288°
2026-05-05 04:01 19.88203 102.25938 36031 ft 465 kts 288°
2026-05-05 04:01 19.90370 102.19429 36025 ft 466 kts 289°
2026-05-05 04:02 19.93147 102.13233 36047 ft 468 kts 298°
2026-05-05 04:02 19.96420 102.07251 36045 ft 468 kts 298°
2026-05-05 04:03 19.99683 102.01255 36046 ft 468 kts 298°
2026-05-05 04:03 20.02930 101.95235 36049 ft 470 kts 298°
2026-05-05 04:04 20.06172 101.89197 36056 ft 473 kts 297°
2026-05-05 04:04 20.09445 101.83093 36054 ft 474 kts 297°
2026-05-05 04:05 20.12691 101.77035 36050 ft 474 kts 297°
2026-05-05 04:05 20.15952 101.70943 36050 ft 473 kts 297°
2026-05-05 04:06 20.19208 101.64855 36043 ft 472 kts 298°
2026-05-05 04:06 20.22455 101.58777 36044 ft 471 kts 298°
2026-05-05 04:07 20.25672 101.52748 36045 ft 470 kts 298°
2026-05-05 04:07 20.28905 101.46684 36043 ft 470 kts 298°
2026-05-05 04:08 20.32135 101.40619 36053 ft 470 kts 298°
2026-05-05 04:08 20.35361 101.34550 36049 ft 470 kts 298°
2026-05-05 04:09 20.38568 101.28515 36049 ft 471 kts 298°
2026-05-05 04:09 20.41798 101.22432 36044 ft 471 kts 298°
2026-05-05 04:10 20.45031 101.16334 36054 ft 472 kts 298°
2026-05-05 04:10 20.48266 101.10225 36053 ft 473 kts 298°
2026-05-05 04:11 20.51503 101.04108 36042 ft 473 kts 298°
2026-05-05 04:11 20.54723 100.98015 36051 ft 473 kts 298°
2026-05-05 04:12 20.57957 100.91887 36053 ft 473 kts 298°
2026-05-05 04:12 20.61192 100.85754 36050 ft 473 kts 298°
2026-05-05 04:13 20.64425 100.79616 36048 ft 473 kts 298°
2026-05-05 04:13 20.67631 100.73523 36049 ft 473 kts 298°
2026-05-05 04:14 20.70857 100.67384 36045 ft 473 kts 298°
2026-05-05 04:14 20.74059 100.61285 36041 ft 473 kts 298°
2026-05-05 04:15 20.77269 100.55164 36036 ft 472 kts 298°
2026-05-05 04:15 20.80460 100.49027 36042 ft 472 kts 296°
2026-05-05 04:16 20.82923 100.42534 36042 ft 470 kts 285°
2026-05-05 04:16 20.84716 100.35808 36035 ft 470 kts 285°
2026-05-05 04:17 20.86491 100.29126 36035 ft 469 kts 285°
2026-05-05 04:17 20.88293 100.22416 36036 ft 469 kts 285°
2026-05-05 04:18 20.90104 100.15714 36041 ft 468 kts 285°
2026-05-05 04:18 20.91912 100.09023 36036 ft 468 kts 285°
2026-05-05 04:19 20.93718 100.02326 36041 ft 468 kts 285°
2026-05-05 04:19 20.95522 99.95626 36037 ft 468 kts 285°
2026-05-05 04:20 20.97311 99.88964 36035 ft 468 kts 285°
2026-05-05 04:20 20.99109 99.82261 36039 ft 468 kts 285°
2026-05-05 04:21 21.00903 99.75561 36038 ft 467 kts 285°
2026-05-05 04:21 21.02692 99.68867 36034 ft 467 kts 285°
2026-05-05 04:22 21.04474 99.62186 36037 ft 466 kts 285°
2026-05-05 04:22 21.06255 99.55502 36040 ft 466 kts 285°
2026-05-05 04:23 21.08020 99.48863 36025 ft 466 kts 285°
2026-05-05 04:23 21.09794 99.42183 36026 ft 466 kts 285°
2026-05-05 04:24 21.11565 99.35498 36014 ft 466 kts 285°
2026-05-05 04:25 21.14218 99.25468 36012 ft 466 kts 285°
2026-05-05 04:25 21.15981 99.18785 36011 ft 466 kts 285°
2026-05-05 04:26 21.17733 99.12133 36014 ft 466 kts 285°
2026-05-05 04:26 21.19493 99.05441 35998 ft 467 kts 285°
2026-05-05 04:27 21.21254 98.98732 35994 ft 467 kts 285°
2026-05-05 04:27 21.23011 98.92026 35985 ft 466 kts 285°
2026-05-05 04:28 21.24753 98.85371 35990 ft 466 kts 285°
2026-05-05 04:28 21.26498 98.78687 35972 ft 465 kts 285°
2026-05-05 04:29 21.28241 98.71998 35976 ft 465 kts 285°
2026-05-05 04:29 21.29981 98.65311 35968 ft 465 kts 285°
2026-05-05 04:30 21.31713 98.58646 35966 ft 463 kts 285°
2026-05-05 04:30 21.33428 98.52034 35975 ft 463 kts 284°
2026-05-05 04:31 21.35152 98.45372 35976 ft 462 kts 284°
2026-05-05 04:31 21.36872 98.38714 35968 ft 463 kts 284°
2026-05-05 04:32 21.38589 98.32058 35968 ft 462 kts 284°
2026-05-05 04:32 21.40295 98.25434 35979 ft 463 kts 284°
2026-05-05 04:33 21.42009 98.18767 35963 ft 463 kts 284°
2026-05-05 04:33 21.43721 98.12093 35985 ft 463 kts 284°
2026-05-05 04:34 21.45420 98.05460 35975 ft 464 kts 284°
2026-05-05 04:34 21.47133 97.98763 35988 ft 464 kts 284°
2026-05-05 04:35 21.48830 97.92111 35982 ft 465 kts 284°
2026-05-05 04:35 21.50536 97.85412 35985 ft 465 kts 284°
2026-05-05 04:36 21.52242 97.78704 35983 ft 465 kts 284°
2026-05-05 04:36 21.53932 97.72047 35978 ft 465 kts 284°
2026-05-05 04:37 21.55641 97.65304 35981 ft 465 kts 284°
2026-05-05 04:37 21.57323 97.58654 35989 ft 464 kts 284°
2026-05-05 04:38 21.59018 97.51941 35973 ft 465 kts 284°
2026-05-05 04:38 21.60709 97.45230 35975 ft 465 kts 284°
2026-05-05 04:39 21.62398 97.38517 35981 ft 465 kts 284°
2026-05-05 04:39 21.64078 97.31826 35978 ft 466 kts 284°
2026-05-05 04:40 21.65768 97.25078 35955 ft 466 kts 284°
2026-05-05 04:40 21.67170 97.19476 35949 ft 466 kts 284°
2026-05-05 04:41 21.68852 97.12745 35942 ft 465 kts 284°
2026-05-05 04:41 21.70527 97.06027 35941 ft 464 kts 284°
2026-05-05 04:42 21.72186 96.99360 35945 ft 464 kts 284°
2026-05-05 04:42 21.73856 96.92636 35936 ft 464 kts 284°
2026-05-05 04:43 21.75510 96.85967 35947 ft 464 kts 284°
2026-05-05 04:43 21.77169 96.79261 35935 ft 464 kts 284°
2026-05-05 04:44 21.78829 96.72540 35941 ft 465 kts 284°
2026-05-05 04:44 21.80492 96.65797 35936 ft 465 kts 284°
2026-05-05 04:45 21.82140 96.59100 35942 ft 465 kts 284°
2026-05-05 04:45 21.83801 96.52336 35929 ft 466 kts 283°
2026-05-05 04:46 21.85449 96.45617 35920 ft 466 kts 283°
2026-05-05 04:46 21.87102 96.38859 35905 ft 467 kts 283°
2026-05-05 04:47 21.88756 96.32088 35910 ft 466 kts 283°
2026-05-05 04:47 21.90394 96.25366 35908 ft 465 kts 283°
2026-05-05 04:48 21.92035 96.18625 35894 ft 465 kts 283°
2026-05-05 04:48 21.93515 96.11844 35896 ft 463 kts 278°
2026-05-05 04:49 21.94165 96.04952 35891 ft 462 kts 274°
2026-05-05 04:49 21.94725 95.98089 35881 ft 463 kts 274°
2026-05-05 04:50 21.95308 95.91165 35887 ft 463 kts 274°
2026-05-05 04:50 21.95903 95.84237 35886 ft 464 kts 275°
2026-05-05 04:51 21.96495 95.77356 35892 ft 464 kts 275°
2026-05-05 04:51 21.97090 95.70420 35900 ft 465 kts 274°
2026-05-05 04:52 21.97682 95.63475 35896 ft 464 kts 274°
2026-05-05 04:52 21.98269 95.56550 35891 ft 464 kts 274°
2026-05-05 04:53 21.98853 95.49622 35891 ft 464 kts 274°
2026-05-05 04:53 21.99430 95.42743 35897 ft 463 kts 274°
2026-05-05 04:54 22.00007 95.35828 35894 ft 463 kts 274°
2026-05-05 04:54 22.00582 95.28911 35900 ft 463 kts 274°
2026-05-05 04:55 22.01152 95.22003 35894 ft 463 kts 274°
2026-05-05 04:55 22.01721 95.15089 35900 ft 462 kts 274°
2026-05-05 04:56 22.02282 95.08218 35900 ft 462 kts 274°
2026-05-05 04:56 22.02844 95.01309 35904 ft 462 kts 274°
2026-05-05 04:57 22.03404 94.94383 35908 ft 463 kts 274°
2026-05-05 04:57 22.03958 94.87512 35911 ft 462 kts 274°
2026-05-05 04:58 22.04511 94.80606 35913 ft 462 kts 274°
2026-05-05 04:58 22.05061 94.73696 35912 ft 462 kts 274°
2026-05-05 04:59 22.05608 94.66791 35923 ft 462 kts 274°
2026-05-05 04:59 22.06152 94.59879 35925 ft 462 kts 274°